Home   Weather   Viersen   Past weeks
Flag for Germany

Past Weather in Viersen, North Rhine-Westphalia, Germany — Yesterday and Last 2 Weeks

Now
39 °F

Clear.


Feels Like: 34 °F
Forecast: 44 / 34 °F
Wind: 8 mph from Southwest

Location: Monchengladbach Airport

Current Time: Dec 5, 2019 at 4:05:22 pm

Latest Report: Dec 5, 2019 at 3:20 pm


Visibility: 5 mi

Pressure: 30.12 "Hg

Humidity: 75%

Dew Point: 32 °F

Location of ViersenLocation

Past Weather in Viersen — Graph

°F

Viersen Temperature Yesterday

Maximum temperature yesterday: 43 °F (at 1:50 pm)
Minimum temperature yesterday: 28 °F (at 4:20 am)
Average temperature yesterday: 34 °F

High & Low Weather Summary for the Past Weeks

 TemperatureHumidityPressure
High55 °F (Nov 27, 12:50 pm)100% (Nov 20, 6:50 pm)30.39 "Hg (Nov 20, 6:50 pm)
Low27 °F (Nov 21, 1:50 am)66% (Nov 29, 12:20 pm)29.15 "Hg (Nov 27, 10:50 pm)
Average40 °F90%29.85 "Hg
* Reported Nov 20 2:20 pm — Dec 5 2:50 pm, Viersen. Weather by CustomWeather, © 2019

Note: Actual official high and low records may vary slightly from our data, if they occured in-between our weather recording intervals... More about our weather records

Viersen Weather History for the Previous 24 Hours

Scroll right to see more
 ConditionsComfort  
Time TempWeatherWind HumidityBarometerVisibility
2:50 pm
Thu, Dec 5
41 °FClear.7 mph70%30.12 "Hg5 mi
2:20 pm41 °FClear.8 mph76%30.12 "Hg6 mi
1:50 pm43 °FClear.6 mph71%30.12 "Hg5 mi
1:20 pm41 °FClear.6 mph76%30.15 "Hg5 mi
12:50 pm41 °FPassing clouds.6 mph70%30.15 "HgN/A
12:20 pm39 °FClear.8 mph81%30.15 "Hg5 mi
11:50 am39 °FClear.6 mph81%30.15 "Hg5 mi
11:20 am37 °FClear.3 mph87%30.18 "Hg4 mi
10:50 am34 °FFog.2 mph100%30.18 "Hg2 mi
10:20 am32 °FIce fog.2 mph100%30.18 "Hg1 mi
9:50 am32 °FIce fog.5 mph100%30.18 "Hg1 mi
9:20 am32 °FIce fog.5 mph93%30.18 "Hg1 mi
8:50 am28 °FPassing clouds.1 mphN/A30.18 "HgN/A
8:20 am28 °FPassing clouds.2 mph100%30.15 "HgN/A
7:50 am28 °FPassing clouds.3 mph100%30.15 "HgN/A
7:20 am28 °FSunny.2 mph93%30.15 "HgN/A
6:50 am28 °FScattered clouds.2 mph100%30.15 "HgN/A
6:20 am27 °FPartly sunny.2 mph93%30.12 "Hg4 mi
5:50 am28 °FSunny.2 mph93%30.15 "HgN/A
5:20 am28 °FSunny.1 mph100%30.15 "HgN/A
4:50 am28 °FSunny.3 mph100%30.12 "HgN/A
4:20 am30 °FSunny.3 mph93%30.12 "HgN/A
3:50 am30 °FSunny.3 mph93%30.12 "HgN/A
3:20 am30 °FSunny.5 mph100%30.12 "HgN/A
2:50 am30 °FSunny.3 mph100%30.12 "HgN/A
2:20 am28 °FSunny.3 mphN/A30.12 "HgN/A
1:50 am30 °FSunny.2 mph100%30.12 "HgN/A
1:20 am30 °FSunny.5 mph100%30.12 "HgN/A
12:50 am32 °FSunny.3 mph93%30.12 "HgN/A
12:20 am34 °FSunny.3 mph93%30.12 "HgN/A
11:50 pm
Wed, Dec 4
32 °FSunny.3 mph93%30.12 "HgN/A
11:20 pm28 °FClear.2 mph100%30.12 "Hg3 mi
10:50 pm30 °FClear.3 mph100%30.12 "HgN/A
10:20 pm30 °FClear.2 mph93%30.12 "HgN/A
9:50 pm32 °FClear.1 mph93%30.12 "HgN/A
9:20 pm34 °FClear.3 mph93%30.12 "HgN/A
8:50 pm32 °FClear.5 mph93%30.12 "HgN/A
8:20 pm32 °FClear.2 mph93%30.12 "Hg10 mi
7:50 pm34 °FClear.1 mph93%30.12 "Hg10 mi
7:20 pm32 °FPassing clouds.3 mph93%30.12 "HgN/A
6:50 pm32 °FClear.2 mph93%30.12 "Hg10 mi
6:20 pm32 °FClear.2 mph93%30.12 "Hg10 mi
5:50 pm36 °FClear.5 mph87%30.15 "Hg10 mi
5:20 pm37 °FClear.5 mph87%30.12 "Hg10 mi
4:50 pm37 °FClear.5 mph87%30.12 "Hg10 mi
4:20 pm39 °FClear.5 mph87%30.12 "Hg10 mi
Weather by CustomWeather, © 2019

See weather overview

Advertising